Cando, ND

3:40 AM CDT on May 30, 2017 (GMT -0500)
Cando

Weather History for K9D7 - February, 2014

Change the Weather History Date:

Monday, February 17, 2014

  Actual Average (KDVL) Record (KDVL)
Temperature  
Mean Temperature 24 °F -  
Max Temperature 32 °F 22 °F 48 °F (1981)
Min Temperature 15 °F 7 °F -27 °F (1966)
Degree Days  
Heating Degree Days 42    
Moisture  
Dew Point 20 °F    
Average Humidity 85    
Maximum Humidity 93    
Minimum Humidity 69    
Precipitation  
Precipitation 0.00 in - - ()
Sea Level Pressure  
Sea Level Pressure 29.54 in    
Wind  
Wind Speed 12 mph (SW)    
Max Wind Speed 17 mph    
Max Gust Speed 20 mph    
Visibility 10 miles    
Events      
Averages and records for this station are not official NWS values.
T = Trace of Precipitation, MM = Missing Value Source: NWS Daily Summary

Daily Weather History Graph

Daily Weather History Graph

Search for Another Location

Airport or City:

Trip Planner

Search our weather history database for the weather conditions in past years. The results will help you decide how hot, cold, wet, or windy it might be!

Date:

Astronomy

Feb. 17, 2014 Rise Set
Actual Time 7:40 AM CST 6:01 PM CST
Civil Twilight 7:08 AM CST 6:34 PM CST
Nautical Twilight 6:32 AM CST 7:10 PM CST
Astronomical Twilight 5:55 AM CST 7:46 PM CST
Moon 9:16 PM CST (2/17) 8:26 AM CST (2/17)
Length of Visible Light 11h 25m
Length of Day
10h 21m
Waning Gibbous, 93% of the Moon is Illuminated
Feb 17
Waning Gibbous
Feb 22
Last Quarter
Mar 1
New
Mar 8
First Quarter
Mar 16
Full

Hourly Weather History & Observations

Time (CST) Temp. Windchill Dew Point Humidity Pressure Visibility Wind Dir Wind Speed Gust Speed Precip Events Conditions
12:15 AM 15.8 °F 1.4 °F 14.0 °F 93% 29.63 in 9.0 mi South 13.8 mph - N/A   Overcast
12:35 AM 15.8 °F 0.9 °F 14.0 °F 93% 29.61 in 10.0 mi SSE 15.0 mph 19.6 mph N/A   Overcast
12:55 AM 15.8 °F 1.4 °F 14.0 °F 93% 29.61 in 9.0 mi South 13.8 mph - N/A   Overcast
1:15 AM 17.6 °F 2.7 °F 14.0 °F 86% 29.61 in 10.0 mi South 16.1 mph - N/A   Overcast
1:35 AM 17.6 °F 3.2 °F 14.0 °F 86% 29.61 in 9.0 mi South 15.0 mph - N/A   Overcast
1:55 AM 17.6 °F 2.7 °F 14.0 °F 86% 29.60 in 10.0 mi South 16.1 mph - N/A   Overcast
2:15 AM 17.6 °F 4.3 °F 14.0 °F 86% 29.59 in 10.0 mi South 12.7 mph - N/A   Overcast
2:35 AM 17.6 °F 3.2 °F 15.8 °F 93% 29.59 in 10.0 mi South 15.0 mph - N/A   Mostly Cloudy
2:55 AM 17.6 °F 4.3 °F 15.8 °F 93% 29.58 in 10.0 mi South 12.7 mph - N/A   Overcast
3:15 AM 17.6 °F 5.7 °F 15.8 °F 93% 29.57 in 10.0 mi South 10.4 mph - N/A   Overcast
3:35 AM 17.6 °F 8.2 °F 15.8 °F 93% 29.57 in 10.0 mi South 6.9 mph - N/A   Overcast
3:55 AM 19.4 °F 10.4 °F 17.6 °F 93% 29.55 in 10.0 mi SSW 6.9 mph - N/A   Overcast
4:15 AM 19.4 °F 10.4 °F 17.6 °F 93% 29.55 in 10.0 mi SSW 6.9 mph - N/A   Overcast
4:35 AM 19.4 °F 12.8 °F 17.6 °F 93% 29.54 in 10.0 mi SSE 4.6 mph - N/A   Overcast
4:55 AM 19.4 °F 11.5 °F 17.6 °F 93% 29.55 in 10.0 mi SSW 5.8 mph - N/A   Overcast
5:15 AM 17.6 °F 10.7 °F 15.8 °F 93% 29.55 in 10.0 mi SW 4.6 mph - N/A   Mostly Cloudy
5:35 AM 17.6 °F 9.3 °F 15.8 °F 93% 29.55 in 9.0 mi WSW 5.8 mph - N/A   Mostly Cloudy
5:55 AM 17.6 °F 6.4 °F 15.8 °F 93% 29.55 in 8.0 mi West 9.2 mph - N/A   Mostly Cloudy
6:15 AM 21.2 °F 8.9 °F 19.4 °F 93% 29.56 in 10.0 mi West 12.7 mph - N/A   Mostly Cloudy
6:35 AM 23.0 °F 10.1 °F 19.4 °F 86% 29.56 in 10.0 mi WNW 15.0 mph - N/A   Scattered Clouds
6:55 AM 24.8 °F 11.9 °F 19.4 °F 80% 29.56 in 10.0 mi WNW 16.1 mph - N/A   Clear
7:15 AM 23.0 °F 9.6 °F 19.4 °F 86% 29.57 in 10.0 mi WNW 16.1 mph - N/A   Clear
7:35 AM 23.0 °F 11.1 °F 17.6 °F 80% 29.57 in 10.0 mi WNW 12.7 mph - N/A   Clear
7:55 AM 19.4 °F 6.0 °F 17.6 °F 93% 29.58 in 10.0 mi WNW 13.8 mph - N/A   Clear
8:15 AM 19.4 °F 6.0 °F 15.8 °F 86% 29.59 in 10.0 mi WNW 13.8 mph - N/A   Clear
8:35 AM 17.6 °F 5.0 °F 15.8 °F 93% 29.60 in 10.0 mi West 11.5 mph - N/A   Clear
8:55 AM 17.6 °F 6.4 °F 15.8 °F 93% 29.61 in 10.0 mi West 9.2 mph - N/A   Clear
9:15 AM 19.4 °F 8.6 °F 15.8 °F 86% 29.62 in 10.0 mi WNW 9.2 mph - N/A   Clear
9:35 AM 19.4 °F 6.6 °F 15.8 °F 86% 29.62 in 10.0 mi West 12.7 mph - N/A   Clear
9:55 AM 19.4 °F 6.6 °F 15.8 °F 86% 29.62 in 10.0 mi West 12.7 mph - N/A   Clear
10:15 AM 21.2 °F 9.5 °F 17.6 °F 86% 29.62 in 10.0 mi West 11.5 mph - N/A   Clear
10:35 AM 23.0 °F 11.1 °F 17.6 °F 80% 29.62 in 10.0 mi West 12.7 mph - N/A   Clear
10:55 AM 23.0 °F 11.7 °F 19.4 °F 86% 29.62 in 10.0 mi West 11.5 mph - N/A   Clear
11:15 AM 24.8 °F 14.0 °F 19.4 °F 80% 29.62 in 10.0 mi West 11.5 mph - N/A   Clear
11:35 AM 24.8 °F 14.0 °F 19.4 °F 80% 29.63 in 10.0 mi West 11.5 mph - N/A   Clear
11:55 AM 26.6 °F 16.8 °F 21.2 °F 80% 29.61 in 10.0 mi West 10.4 mph - N/A   Clear
12:15 PM 26.6 °F 15.7 °F 21.2 °F 80% 29.61 in 10.0 mi West 12.7 mph - N/A   Clear
12:35 PM 26.6 °F 15.7 °F 21.2 °F 80% 29.60 in 10.0 mi WSW 12.7 mph 17.3 mph N/A   Clear
12:55 PM 28.4 °F 17.5 °F 23.0 °F 80% 29.59 in 10.0 mi West 13.8 mph - N/A   Clear
1:15 PM 28.4 °F 17.0 °F 23.0 °F 80% 29.58 in 10.0 mi WSW 15.0 mph - N/A   Clear
1:35 PM 28.4 °F 16.6 °F 23.0 °F 80% 29.58 in 10.0 mi WSW 16.1 mph - N/A   Clear
1:55 PM 30.2 °F 18.5 °F 23.0 °F 75% 29.57 in 10.0 mi WSW 17.3 mph - N/A   Clear
2:15 PM 30.2 °F 19.3 °F 23.0 °F 75% 29.55 in 10.0 mi WSW 15.0 mph - N/A   Clear
2:35 PM 32.0 °F 22.1 °F 23.0 °F 69% 29.55 in 10.0 mi WSW 13.8 mph - N/A   Clear
2:55 PM 32.0 °F 22.1 °F 24.8 °F 75% 29.54 in 10.0 mi WSW 13.8 mph - N/A   Clear
3:15 PM 32.0 °F 23.0 °F 24.8 °F 75% 29.54 in 10.0 mi WSW 11.5 mph - N/A   Clear
3:35 PM 32.0 °F 23.0 °F 24.8 °F 75% 29.53 in 10.0 mi SW 11.5 mph - N/A   Clear
3:55 PM 32.0 °F 24.2 °F 24.8 °F 75% 29.52 in 10.0 mi SSW 9.2 mph - N/A   Clear
4:15 PM 32.0 °F 22.5 °F 24.8 °F 75% 29.50 in 10.0 mi SSW 12.7 mph - N/A   Clear
4:35 PM 32.0 °F 23.0 °F 24.8 °F 75% 29.50 in 10.0 mi South 11.5 mph - N/A   Clear
4:55 PM 30.2 °F 20.8 °F 24.8 °F 80% 29.50 in 10.0 mi South 11.5 mph - N/A   Clear
5:15 PM 28.4 °F 18.5 °F 24.8 °F 86% 29.49 in 10.0 mi South 11.5 mph - N/A   Clear
5:35 PM 28.4 °F 18.5 °F 24.8 °F 86% 29.47 in 10.0 mi South 11.5 mph - N/A   Clear
5:55 PM 28.4 °F 20.4 °F 23.0 °F 80% 29.47 in 10.0 mi South 8.1 mph - N/A   Clear
6:15 PM 26.6 °F 19.1 °F 23.0 °F 86% 29.47 in 10.0 mi SSE 6.9 mph - N/A   Clear
6:35 PM 24.8 °F 20.5 °F 21.2 °F 86% 29.47 in 10.0 mi SSE 3.5 mph - N/A   Clear
6:55 PM 24.8 °F 16.9 °F 23.0 °F 93% 29.46 in 10.0 mi South 6.9 mph - N/A   Clear
7:15 PM 21.2 °F 16.4 °F 19.4 °F 93% 29.46 in 10.0 mi South 3.5 mph - N/A   Clear
7:35 PM 23.0 °F - 19.4 °F 86% 29.45 in 10.0 mi Calm Calm - N/A   Clear
7:55 PM 26.6 °F 18.2 °F 23.0 °F 86% 29.45 in 10.0 mi WSW 8.1 mph - N/A   Clear
8:15 PM 24.8 °F 15.3 °F 19.4 °F 80% 29.44 in 10.0 mi WSW 9.2 mph - N/A   Clear
8:35 PM 26.6 °F 15.2 °F 23.0 °F 86% 29.42 in 10.0 mi SW 13.8 mph - N/A   Clear
8:55 PM 28.4 °F 17.5 °F 23.0 °F 80% 29.43 in 10.0 mi SW 13.8 mph - N/A   Clear
9:15 PM 28.4 °F 17.5 °F 23.0 °F 80% 29.42 in 10.0 mi SW 13.8 mph - N/A   Clear
9:35 PM 28.4 °F 18.0 °F 23.0 °F 80% 29.42 in 10.0 mi SW 12.7 mph - N/A   Clear
9:55 PM 28.4 °F - 23.0 °F 80% 29.42 in 10.0 mi North - - N/A   Clear
10:15 PM 26.6 °F - 23.0 °F 86% 29.41 in 10.0 mi North - - N/A   Clear
10:35 PM 24.8 °F - 21.2 °F 86% 29.41 in 10.0 mi North - - N/A   Clear
10:55 PM 24.8 °F - 21.2 °F 86% 29.41 in 10.0 mi North - - N/A   Clear
11:15 PM 26.6 °F - 23.0 °F 86% 29.41 in 10.0 mi North - - N/A   Clear
11:35 PM 28.4 °F - 23.0 °F 80% 29.40 in 10.0 mi North - - N/A   Clear
11:55 PM 28.4 °F - 24.8 °F 86% 29.39 in 10.0 mi North - - N/A   Scattered Clouds